Time,TemperatureF,DewpointF,PressureIn,WindDirection,WindDirectionDegrees,WindSpeedMPH,WindSpeedGustMPH,Humidity,HourlyPrecipIn,Conditions,Clouds,dailyrainin,SoftwareType,DateUTC
2013-08-18 00:03:00,62.8,62.2,29.63,East,90,1.6,3.8,98,0.00,,,0.00,pywws,2013-08-17 23:03:00,
2013-08-18 00:09:00,63.0,62.4,29.63,North,0,3.8,6.9,98,0.00,,,0.00,pywws,2013-08-17 23:09:00,
2013-08-18 00:14:00,63.0,62.4,29.63,SSE,158,1.6,4.5,98,0.00,,,0.00,pywws,2013-08-17 23:14:00,
2013-08-18 00:20:00,63.0,62.4,29.63,SW,225,3.8,7.6,98,0.00,,,0.00,pywws,2013-08-17 23:20:00,
2013-08-18 00:25:00,63.1,62.6,29.63,SE,135,1.6,3.1,98,0.00,,,0.00,pywws,2013-08-17 23:25:00,
2013-08-18 00:31:00,63.1,62.6,29.63,SW,225,2.2,6.0,98,0.00,,,0.00,pywws,2013-08-17 23:31:00,
2013-08-18 00:37:00,63.1,62.6,29.63,SW,225,0.0,1.6,98,0.00,,,0.00,pywws,2013-08-17 23:37:00,
2013-08-18 00:42:00,63.1,62.9,29.62,NW,315,1.6,4.5,99,0.00,,,0.00,pywws,2013-08-17 23:42:00,
2013-08-18 00:48:00,63.1,62.9,29.62,South,180,2.2,4.5,99,0.01,,,0.01,pywws,2013-08-17 23:48:00,
2013-08-18 00:53:00,63.1,62.9,29.62,North,0,1.6,5.4,99,0.01,,,0.01,pywws,2013-08-17 23:53:00,
2013-08-18 00:59:00,63.3,63.0,29.62,WSW,248,3.1,9.8,99,0.01,,,0.01,pywws,2013-08-17 23:59:00,
2013-08-18 01:05:00,63.3,63.0,29.62,WSW,248,3.1,9.8,99,0.01,,,0.01,pywws,2013-08-18 00:05:00,
2013-08-18 01:10:00,63.3,63.0,29.62,SW,225,1.6,6.0,99,0.01,,,0.01,pywws,2013-08-18 00:10:00,
2013-08-18 01:16:00,63.5,63.2,29.62,SW,225,1.6,3.8,99,0.01,,,0.01,pywws,2013-08-18 00:16:00,
2013-08-18 01:21:00,63.5,63.2,29.62,SE,135,2.2,4.5,99,0.01,,,0.01,pywws,2013-08-18 00:21:00,
2013-08-18 01:27:00,63.7,63.4,29.62,NNE,22,3.1,6.0,99,0.01,,,0.01,pywws,2013-08-18 00:27:00,
2013-08-18 01:33:00,63.7,63.4,29.62,SW,225,1.6,6.0,99,0.01,,,0.01,pywws,2013-08-18 00:33:00,
2013-08-18 01:38:00,63.7,63.1,29.62,West,270,0.0,2.2,98,0.01,,,0.01,pywws,2013-08-18 00:38:00,
2013-08-18 01:44:00,63.9,63.6,29.62,SW,225,1.6,3.1,99,0.01,,,0.01,pywws,2013-08-18 00:44:00,
2013-08-18 01:49:00,63.9,63.3,29.62,SE,135,1.6,5.4,98,0.00,,,0.01,pywws,2013-08-18 00:49:00,
2013-08-18 01:55:00,63.9,63.3,29.62,SE,135,2.2,4.5,98,0.00,,,0.01,pywws,2013-08-18 00:55:00,
2013-08-18 02:01:00,63.9,63.6,29.62,SW,225,2.2,3.8,99,0.00,,,0.01,pywws,2013-08-18 01:01:00,
2013-08-18 02:06:00,63.9,63.6,29.62,East,90,0.0,1.6,99,0.00,,,0.01,pywws,2013-08-18 01:06:00,
2013-08-18 02:12:00,63.9,63.6,29.62,North,0,0.0,2.2,99,0.00,,,0.01,pywws,2013-08-18 01:12:00,
2013-08-18 02:17:00,63.9,63.6,29.62,SW,225,0.0,3.1,99,0.00,,,0.01,pywws,2013-08-18 01:17:00,
2013-08-18 02:23:00,63.9,63.6,29.62,SW,225,0.7,3.1,99,0.00,,,0.01,pywws,2013-08-18 01:23:00,
2013-08-18 02:29:00,63.7,63.4,29.62,NE,45,0.7,2.2,99,0.00,,,0.01,pywws,2013-08-18 01:29:00,
2013-08-18 02:34:00,63.7,63.1,29.62,East,90,1.6,4.5,98,0.00,,,0.01,pywws,2013-08-18 01:34:00,
2013-08-18 02:40:00,63.7,63.1,29.62,SE,135,2.2,4.5,98,0.00,,,0.01,pywws,2013-08-18 01:40:00,
2013-08-18 02:45:00,63.5,62.9,29.62,South,180,1.6,3.1,98,0.00,,,0.01,pywws,2013-08-18 01:45:00,
2013-08-18 02:51:00,63.5,62.6,29.62,SW,225,1.6,3.8,97,0.00,,,0.01,pywws,2013-08-18 01:51:00,
2013-08-18 02:57:00,63.5,62.6,29.62,NE,45,0.7,3.1,97,0.00,,,0.01,pywws,2013-08-18 01:57:00,
2013-08-18 03:02:00,63.3,62.5,29.62,North,0,0.0,1.6,97,0.00,,,0.01,pywws,2013-08-18 02:02:00,
2013-08-18 03:08:00,63.1,62.3,29.62,NE,45,0.0,1.6,97,0.00,,,0.01,pywws,2013-08-18 02:08:00,
2013-08-18 03:13:00,63.1,62.0,29.63,SE,135,1.6,3.8,96,0.00,,,0.01,pywws,2013-08-18 02:13:00,
2013-08-18 03:19:00,63.0,61.8,29.63,SSW,202,0.0,4.5,96,0.00,,,0.01,pywws,2013-08-18 02:19:00,
2013-08-18 03:25:00,63.0,61.8,29.63,NE,45,0.0,3.1,96,0.00,,,0.01,pywws,2013-08-18 02:25:00,
2013-08-18 03:30:00,63.0,61.8,29.62,SE,135,1.6,3.8,96,0.00,,,0.01,pywws,2013-08-18 02:30:00,
2013-08-18 03:36:00,63.0,61.8,29.62,SE,135,0.7,3.8,96,0.00,,,0.01,pywws,2013-08-18 02:36:00,
2013-08-18 03:41:00,62.8,61.6,29.62,South,180,0.7,3.8,96,0.00,,,0.01,pywws,2013-08-18 02:41:00,
2013-08-18 03:47:00,62.8,61.3,29.62,North,0,1.6,4.5,95,0.00,,,0.01,pywws,2013-08-18 02:47:00,
2013-08-18 03:53:00,62.6,61.1,29.63,South,180,1.6,4.5,95,0.00,,,0.01,pywws,2013-08-18 02:53:00,
2013-08-18 03:58:00,62.6,61.1,29.62,South,180,1.6,6.0,95,0.00,,,0.01,pywws,2013-08-18 02:58:00,
2013-08-18 04:04:00,62.6,61.1,29.62,East,90,0.7,1.6,95,0.00,,,0.01,pywws,2013-08-18 03:04:00,
2013-08-18 04:09:00,62.4,61.0,29.62,ESE,112,2.2,4.5,95,0.00,,,0.01,pywws,2013-08-18 03:09:00,
2013-08-18 04:15:00,62.2,60.8,29.62,NW,315,1.6,3.8,95,0.00,,,0.01,pywws,2013-08-18 03:15:00,
2013-08-18 04:21:00,62.2,60.8,29.63,NE,45,1.6,3.1,95,0.00,,,0.01,pywws,2013-08-18 03:21:00,
2013-08-18 04:26:00,62.1,60.6,29.62,North,0,0.0,1.6,95,0.00,,,0.01,pywws,2013-08-18 03:26:00,
2013-08-18 04:32:00,61.9,60.4,29.62,South,180,1.6,4.5,95,0.00,,,0.01,pywws,2013-08-18 03:32:00,
2013-08-18 04:37:00,61.9,60.4,29.62,NW,315,0.7,2.2,95,0.00,,,0.01,pywws,2013-08-18 03:37:00,
2013-08-18 04:43:00,61.7,60.5,29.63,WNW,292,1.6,3.8,96,0.00,,,0.01,pywws,2013-08-18 03:43:00,
2013-08-18 04:49:00,61.5,60.4,29.62,WSW,248,0.7,3.1,96,0.00,,,0.01,pywws,2013-08-18 03:49:00,
2013-08-18 04:54:00,61.3,60.2,29.63,SSW,202,2.2,4.5,96,0.00,,,0.01,pywws,2013-08-18 03:54:00,
2013-08-18 05:00:00,61.3,60.2,29.63,SSE,158,0.0,2.2,96,0.00,,,0.01,pywws,2013-08-18 04:00:00,
2013-08-18 05:01:00,61.3,60.2,29.63,SSE,158,0.0,2.2,96,0.00,,,0.01,pywws,2013-08-18 04:01:00,
2013-08-18 05:03:00,61.3,60.2,29.64,SSE,158,0.0,2.2,96,0.00,,,0.01,pywws,2013-08-18 04:03:00,
2013-08-18 05:04:00,61.3,60.2,29.63,SSE,158,0.0,2.2,96,0.00,,,0.01,pywws,2013-08-18 04:04:00,
2013-08-18 05:05:00,61.3,60.2,29.63,SSE,158,0.0,2.2,96,0.00,,,0.01,pywws,2013-08-18 04:05:00,
2013-08-18 05:10:00,61.2,60.0,29.63,SW,225,0.0,3.1,96,0.00,,,0.01,pywws,2013-08-18 04:10:00,
2013-08-18 05:16:00,61.0,59.8,29.64,East,90,0.0,2.2,96,0.00,,,0.01,pywws,2013-08-18 04:16:00,
2013-08-18 05:21:00,61.0,60.1,29.64,North,0,0.0,1.6,97,0.00,,,0.01,pywws,2013-08-18 04:21:00,
2013-08-18 05:27:00,60.8,59.9,29.64,East,90,0.7,4.5,97,0.00,,,0.01,pywws,2013-08-18 04:27:00,
2013-08-18 05:33:00,60.6,59.8,29.64,North,0,0.7,2.2,97,0.00,,,0.01,pywws,2013-08-18 04:33:00,
2013-08-18 05:38:00,60.4,59.6,29.64,SW,225,0.0,2.2,97,0.00,,,0.01,pywws,2013-08-18 04:38:00,
2013-08-18 05:44:00,60.4,59.6,29.64,NNW,338,1.6,3.1,97,0.00,,,0.01,pywws,2013-08-18 04:44:00,
2013-08-18 05:49:00,60.3,59.4,29.65,SSE,158,0.7,3.1,97,0.00,,,0.01,pywws,2013-08-18 04:49:00,
2013-08-18 05:55:00,60.3,59.4,29.65,SE,135,0.7,3.1,97,0.00,,,0.01,pywws,2013-08-18 04:55:00,
2013-08-18 06:01:00,60.3,59.4,29.65,SW,225,0.7,3.8,97,0.00,,,0.01,pywws,2013-08-18 05:01:00,
2013-08-18 06:06:00,60.3,59.4,29.65,SE,135,0.0,2.2,97,0.00,,,0.01,pywws,2013-08-18 05:06:00,
2013-08-18 06:12:00,60.1,59.2,29.65,South,180,0.0,1.6,97,0.00,,,0.01,pywws,2013-08-18 05:12:00,
2013-08-18 06:17:00,60.1,59.5,29.66,NE,45,0.7,2.2,98,0.00,,,0.01,pywws,2013-08-18 05:17:00,
2013-08-18 06:23:00,60.3,59.7,29.65,SE,135,2.2,4.5,98,0.00,,,0.01,pywws,2013-08-18 05:23:00,
2013-08-18 06:29:00,60.3,59.4,29.65,SW,225,0.0,1.6,97,0.00,,,0.01,pywws,2013-08-18 05:29:00,
2013-08-18 06:34:00,60.3,59.4,29.66,SE,135,0.7,3.1,97,0.00,,,0.01,pywws,2013-08-18 05:34:00,
2013-08-18 06:40:00,60.4,59.6,29.66,South,180,0.0,3.1,97,0.00,,,0.01,pywws,2013-08-18 05:40:00,
2013-08-18 06:45:00,60.4,59.3,29.66,SE,135,1.6,3.1,96,0.00,,,0.01,pywws,2013-08-18 05:45:00,
2013-08-18 06:51:00,60.4,59.3,29.66,South,180,0.7,2.2,96,0.00,,,0.01,pywws,2013-08-18 05:51:00,
2013-08-18 06:57:00,61.2,59.7,29.66,SW,225,1.6,4.5,95,0.00,,,0.01,pywws,2013-08-18 05:57:00,
2013-08-18 07:02:00,61.5,59.5,29.66,NE,45,0.7,3.8,93,0.00,,,0.01,pywws,2013-08-18 06:02:00,
2013-08-18 07:08:00,61.5,59.5,29.66,SW,225,0.7,3.8,93,0.00,,,0.01,pywws,2013-08-18 06:08:00,
2013-08-18 07:13:00,61.3,59.3,29.66,ENE,68,0.7,2.2,93,0.00,,,0.01,pywws,2013-08-18 06:13:00,
2013-08-18 07:19:00,61.5,59.5,29.66,NW,315,1.6,3.1,93,0.00,,,0.01,pywws,2013-08-18 06:19:00,
2013-08-18 07:25:00,62.1,59.4,29.67,NW,315,0.7,4.5,91,0.00,,,0.01,pywws,2013-08-18 06:25:00,
2013-08-18 07:30:00,62.8,60.1,29.67,North,0,1.6,3.8,91,0.00,,,0.01,pywws,2013-08-18 06:30:00,
2013-08-18 07:36:00,63.5,59.9,29.67,SE,135,0.7,3.8,88,0.00,,,0.01,pywws,2013-08-18 06:36:00,
2013-08-18 07:41:00,63.9,60.2,29.67,NE,45,0.7,3.1,88,0.00,,,0.01,pywws,2013-08-18 06:41:00,
2013-08-18 07:47:00,65.3,61.0,29.68,NE,45,0.0,2.2,86,0.00,,,0.01,pywws,2013-08-18 06:47:00,
2013-08-18 07:53:00,66.4,60.7,29.68,South,180,1.6,3.8,82,0.00,,,0.01,pywws,2013-08-18 06:53:00,
2013-08-18 07:58:00,66.4,60.7,29.68,West,270,0.0,2.2,82,0.00,,,0.01,pywws,2013-08-18 06:58:00,
2013-08-18 08:04:00,66.9,60.5,29.68,West,270,0.7,3.8,80,0.00,,,0.01,pywws,2013-08-18 07:04:00,
2013-08-18 08:09:00,67.1,60.4,29.69,North,0,0.0,2.2,79,0.00,,,0.01,pywws,2013-08-18 07:09:00,
2013-08-18 08:15:00,67.5,60.7,29.68,North,0,0.7,3.1,79,0.00,,,0.01,pywws,2013-08-18 07:15:00,
2013-08-18 08:21:00,67.5,60.4,29.69,East,90,3.8,7.6,78,0.00,,,0.01,pywws,2013-08-18 07:21:00,
2013-08-18 08:26:00,67.1,60.4,29.69,SE,135,0.7,2.2,79,0.00,,,0.01,pywws,2013-08-18 07:26:00,
2013-08-18 08:32:00,66.7,60.0,29.69,South,180,1.6,3.8,79,0.00,,,0.01,pywws,2013-08-18 07:32:00,
2013-08-18 08:37:00,65.8,59.5,29.69,East,90,0.7,3.1,80,0.00,,,0.01,pywws,2013-08-18 07:37:00,
2013-08-18 08:43:00,65.8,59.5,29.70,East,90,2.2,4.5,80,0.00,,,0.01,pywws,2013-08-18 07:43:00,
2013-08-18 08:49:00,66.0,59.7,29.70,SSW,202,1.6,2.2,80,0.00,,,0.01,pywws,2013-08-18 07:49:00,
2013-08-18 08:54:00,66.4,59.7,29.70,NNE,22,0.7,1.6,79,0.00,,,0.01,pywws,2013-08-18 07:54:00,
2013-08-18 09:00:00,66.4,59.7,29.70,North,0,0.7,2.2,79,0.00,,,0.01,pywws,2013-08-18 08:00:00,
2013-08-18 09:05:00,66.4,60.0,29.70,East,90,1.6,3.8,80,0.00,,,0.01,pywws,2013-08-18 08:05:00,
2013-08-18 09:11:00,67.3,60.5,29.70,East,90,0.0,1.6,79,0.00,,,0.01,pywws,2013-08-18 08:11:00,
2013-08-18 09:17:00,67.8,59.6,29.70,NW,315,1.6,4.5,75,0.00,,,0.01,pywws,2013-08-18 08:17:00,
2013-08-18 09:22:00,68.2,59.6,29.70,NW,315,2.2,4.5,74,0.00,,,0.01,pywws,2013-08-18 08:22:00,
2013-08-18 09:28:00,68.2,59.6,29.70,NE,45,1.6,3.8,74,0.00,,,0.01,pywws,2013-08-18 08:28:00,
2013-08-18 09:33:00,68.4,59.7,29.70,South,180,0.7,3.1,74,0.00,,,0.01,pywws,2013-08-18 08:33:00,
2013-08-18 09:39:00,68.5,59.5,29.70,SW,225,0.7,3.1,73,0.00,,,0.01,pywws,2013-08-18 08:39:00,
2013-08-18 09:45:00,68.7,59.7,29.70,North,0,0.7,3.1,73,0.00,,,0.01,pywws,2013-08-18 08:45:00,
2013-08-18 09:50:00,68.7,60.1,29.71,SW,225,0.7,2.2,74,0.00,,,0.01,pywws,2013-08-18 08:50:00,
2013-08-18 09:56:00,68.7,59.7,29.71,NE,45,0.7,3.1,73,0.00,,,0.01,pywws,2013-08-18 08:56:00,
2013-08-18 10:01:00,68.4,59.4,29.71,East,90,1.6,3.8,73,0.00,,,0.01,pywws,2013-08-18 09:01:00,
2013-08-18 10:07:00,68.4,59.4,29.71,ENE,68,1.6,3.8,73,0.00,,,0.01,pywws,2013-08-18 09:07:00,
2013-08-18 10:13:00,68.5,58.8,29.71,NW,315,0.7,3.1,71,0.00,,,0.01,pywws,2013-08-18 09:13:00,
2013-08-18 10:18:00,68.4,59.0,29.71,SE,135,0.0,0.0,72,0.00,,,0.01,pywws,2013-08-18 09:18:00,
2013-08-18 10:24:00,68.2,59.2,29.71,WNW,292,2.2,5.4,73,0.00,,,0.01,pywws,2013-08-18 09:24:00,
2013-08-18 10:29:00,68.4,59.4,29.71,SW,225,1.6,3.8,73,0.00,,,0.01,pywws,2013-08-18 09:29:00,
2013-08-18 10:35:00,68.7,59.3,29.72,South,180,0.7,2.2,72,0.00,,,0.01,pywws,2013-08-18 09:35:00,
2013-08-18 10:41:00,69.3,59.8,29.72,South,180,0.7,2.2,72,0.00,,,0.01,pywws,2013-08-18 09:41:00,
2013-08-18 10:46:00,69.6,59.4,29.72,North,0,1.6,3.1,70,0.00,,,0.01,pywws,2013-08-18 09:46:00,
2013-08-18 10:52:00,69.8,59.2,29.72,East,90,2.2,3.8,69,0.00,,,0.01,pywws,2013-08-18 09:52:00,
2013-08-18 10:57:00,70.0,58.5,29.72,South,180,3.1,4.5,67,0.00,,,0.01,pywws,2013-08-18 09:57:00,
2013-08-18 11:03:00,70.0,58.9,29.72,SE,135,1.6,3.1,68,0.00,,,0.01,pywws,2013-08-18 10:03:00,
2013-08-18 11:09:00,70.3,59.3,29.72,East,90,0.7,3.8,68,0.00,,,0.01,pywws,2013-08-18 10:09:00,
2013-08-18 11:14:00,70.3,58.9,29.72,North,0,0.7,2.2,67,0.00,,,0.01,pywws,2013-08-18 10:14:00,
2013-08-18 11:20:00,70.5,59.4,29.72,NW,315,0.7,2.2,68,0.00,,,0.01,pywws,2013-08-18 10:20:00,
2013-08-18 11:25:00,70.9,59.4,29.72,NW,315,1.6,6.9,67,0.00,,,0.01,pywws,2013-08-18 10:25:00,
2013-08-18 11:31:00,70.7,59.2,29.72,SE,135,2.2,4.5,67,0.00,,,0.01,pywws,2013-08-18 10:31:00,
2013-08-18 11:37:00,70.7,58.8,29.72,West,270,1.6,6.9,66,0.00,,,0.01,pywws,2013-08-18 10:37:00,
2013-08-18 11:42:00,70.7,59.2,29.72,NE,45,0.7,2.2,67,0.00,,,0.01,pywws,2013-08-18 10:42:00,
2013-08-18 11:48:00,71.4,59.9,29.72,NNW,338,0.0,3.1,67,0.00,,,0.01,pywws,2013-08-18 10:48:00,
2013-08-18 11:53:00,73.6,59.3,29.72,SW,225,1.6,4.5,61,0.00,,,0.01,pywws,2013-08-18 10:53:00,
2013-08-18 11:59:00,72.5,57.8,29.72,NW,315,2.2,4.5,60,0.00,,,0.01,pywws,2013-08-18 10:59:00,
2013-08-18 12:05:00,71.2,58.0,29.72,East,90,0.7,3.8,63,0.00,,,0.01,pywws,2013-08-18 11:05:00,
2013-08-18 12:10:00,70.9,58.5,29.72,North,0,1.6,3.8,65,0.00,,,0.01,pywws,2013-08-18 11:10:00,
2013-08-18 12:16:00,70.7,58.8,29.72,NE,45,1.6,3.1,66,0.00,,,0.01,pywws,2013-08-18 11:16:00,
2013-08-18 12:21:00,71.1,58.7,29.72,South,180,0.7,2.2,65,0.00,,,0.01,pywws,2013-08-18 11:21:00,
2013-08-18 12:27:00,71.6,58.3,29.72,South,180,2.2,4.5,63,0.00,,,0.01,pywws,2013-08-18 11:27:00,
2013-08-18 12:33:00,71.4,58.2,29.72,NW,315,1.6,4.5,63,0.00,,,0.01,pywws,2013-08-18 11:33:00,
2013-08-18 12:38:00,72.7,58.9,29.72,East,90,2.2,3.8,62,0.00,,,0.01,pywws,2013-08-18 11:38:00,
2013-08-18 12:44:00,75.0,59.2,29.72,NE,45,0.7,2.2,58,0.00,,,0.01,pywws,2013-08-18 11:44:00,
2013-08-18 12:49:00,74.8,58.1,29.72,SE,135,0.7,3.1,56,0.00,,,0.01,pywws,2013-08-18 11:49:00,
2013-08-18 12:55:00,73.4,56.2,29.72,NE,45,0.7,3.1,55,0.00,,,0.01,pywws,2013-08-18 11:55:00,
2013-08-18 13:01:00,72.5,55.9,29.72,NE,45,1.6,4.5,56,0.00,,,0.01,pywws,2013-08-18 12:01:00,
2013-08-18 13:06:00,72.1,56.5,29.72,SE,135,0.7,5.4,58,0.00,,,0.01,pywws,2013-08-18 12:06:00,
2013-08-18 13:12:00,72.0,56.4,29.72,South,180,0.7,2.2,58,0.00,,,0.01,pywws,2013-08-18 12:12:00,
2013-08-18 13:17:00,72.7,57.0,29.72,NE,45,0.7,2.2,58,0.00,,,0.01,pywws,2013-08-18 12:17:00,
2013-08-18 13:23:00,72.7,57.0,29.72,West,270,0.7,4.5,58,0.00,,,0.01,pywws,2013-08-18 12:23:00,
2013-08-18 13:29:00,73.4,56.7,29.72,North,0,1.6,4.5,56,0.00,,,0.01,pywws,2013-08-18 12:29:00,
2013-08-18 13:34:00,74.8,58.1,29.72,NE,45,0.7,3.1,56,0.00,,,0.01,pywws,2013-08-18 12:34:00,
2013-08-18 13:40:00,75.7,57.4,29.72,NE,45,1.6,3.8,53,0.00,,,0.01,pywws,2013-08-18 12:40:00,
2013-08-18 13:45:00,75.7,56.8,29.72,SW,225,0.7,2.2,52,0.00,,,0.01,pywws,2013-08-18 12:45:00,
2013-08-18 13:51:00,75.4,56.5,29.72,West,270,1.6,3.1,52,0.00,,,0.01,pywws,2013-08-18 12:51:00,
2013-08-18 13:57:00,75.2,56.3,29.73,North,0,2.2,5.4,52,0.00,,,0.01,pywws,2013-08-18 12:57:00,
2013-08-18 14:02:00,75.7,56.8,29.72,SW,225,2.2,6.0,52,0.00,,,0.01,pywws,2013-08-18 13:02:00,
2013-08-18 14:08:00,77.2,56.5,29.72,West,270,1.6,3.8,49,0.00,,,0.01,pywws,2013-08-18 13:08:00,
2013-08-18 14:13:00,78.3,57.5,29.72,SW,225,1.6,6.0,49,0.00,,,0.01,pywws,2013-08-18 13:13:00,
2013-08-18 14:19:00,79.0,55.8,29.72,South,180,1.6,3.1,45,0.00,,,0.01,pywws,2013-08-18 13:19:00,
2013-08-18 14:25:00,77.9,56.0,29.72,NW,315,1.6,3.8,47,0.00,,,0.01,pywws,2013-08-18 13:25:00,
2013-08-18 14:30:00,79.0,55.8,29.72,South,180,0.7,3.1,45,0.00,,,0.01,pywws,2013-08-18 13:30:00,
2013-08-18 14:36:00,81.1,53.1,29.72,SE,135,3.1,6.9,38,0.00,,,0.01,pywws,2013-08-18 13:36:00,
2013-08-18 14:41:00,79.9,53.4,29.72,SW,225,2.2,3.8,40,0.00,,,0.01,pywws,2013-08-18 13:41:00,
2013-08-18 14:47:00,79.3,54.2,29.72,SE,135,0.7,3.8,42,0.00,,,0.01,pywws,2013-08-18 13:47:00,
2013-08-18 14:53:00,78.3,53.3,29.72,NW,315,0.7,3.1,42,0.00,,,0.01,pywws,2013-08-18 13:53:00,
2013-08-18 14:58:00,77.0,52.8,29.72,NW,315,3.1,5.4,43,0.00,,,0.01,pywws,2013-08-18 13:58:00,
2013-08-18 15:04:00,75.7,53.5,29.72,NW,315,0.0,4.5,46,0.00,,,0.01,pywws,2013-08-18 14:04:00,
2013-08-18 15:09:00,75.2,52.4,29.72,SW,225,0.7,3.1,45,0.00,,,0.01,pywws,2013-08-18 14:09:00,
2013-08-18 15:15:00,75.6,53.3,29.72,North,0,1.6,5.4,46,0.00,,,0.01,pywws,2013-08-18 14:15:00,
2013-08-18 15:21:00,76.5,52.3,29.72,West,270,2.2,4.5,43,0.00,,,0.01,pywws,2013-08-18 14:21:00,
2013-08-18 15:26:00,76.5,52.9,29.72,SE,135,0.7,2.2,44,0.00,,,0.01,pywws,2013-08-18 14:26:00,
2013-08-18 15:32:00,76.1,52.6,29.72,North,0,2.2,4.5,44,0.00,,,0.01,pywws,2013-08-18 14:32:00,
2013-08-18 15:37:00,75.2,51.8,29.72,West,270,3.1,6.0,44,0.00,,,0.01,pywws,2013-08-18 14:37:00,
2013-08-18 15:43:00,74.5,52.9,29.72,ESE,112,1.6,3.8,47,0.00,,,0.01,pywws,2013-08-18 14:43:00,
2013-08-18 15:49:00,74.7,52.5,29.72,NW,315,0.0,3.8,46,0.00,,,0.01,pywws,2013-08-18 14:49:00,
2013-08-18 15:54:00,74.7,53.1,29.72,South,180,0.0,2.2,47,0.00,,,0.01,pywws,2013-08-18 14:54:00,
2013-08-18 16:00:00,74.5,53.5,29.72,NE,45,0.0,2.2,48,0.00,,,0.01,pywws,2013-08-18 15:00:00,
2013-08-18 16:05:00,74.3,53.9,29.73,South,180,2.2,4.5,49,0.00,,,0.01,pywws,2013-08-18 15:05:00,
2013-08-18 16:11:00,75.2,54.7,29.73,East,90,0.0,2.2,49,0.00,,,0.01,pywws,2013-08-18 15:11:00,
2013-08-18 16:17:00,76.6,54.3,29.73,West,270,2.2,5.4,46,0.00,,,0.01,pywws,2013-08-18 15:17:00,
2013-08-18 16:22:00,75.2,54.1,29.73,NE,45,2.2,4.5,48,0.00,,,0.01,pywws,2013-08-18 15:22:00,
2013-08-18 16:28:00,73.8,55.0,29.73,North,0,0.7,1.6,52,0.00,,,0.01,pywws,2013-08-18 15:28:00,
2013-08-18 16:33:00,73.4,55.2,29.74,North,0,1.6,3.8,53,0.00,,,0.01,pywws,2013-08-18 15:33:00,
2013-08-18 16:39:00,72.9,55.7,29.73,NNE,22,0.7,2.2,55,0.00,,,0.01,pywws,2013-08-18 15:39:00,
2013-08-18 16:45:00,72.1,55.6,29.73,West,270,3.1,6.9,56,0.00,,,0.01,pywws,2013-08-18 15:45:00,
2013-08-18 16:50:00,71.2,57.1,29.74,NW,315,1.6,3.1,61,0.00,,,0.01,pywws,2013-08-18 15:50:00,
2013-08-18 16:56:00,70.3,58.0,29.74,South,180,0.7,2.2,65,0.00,,,0.01,pywws,2013-08-18 15:56:00,
2013-08-18 17:01:00,69.4,57.2,29.74,SE,135,1.6,3.8,65,0.00,,,0.01,pywws,2013-08-18 16:01:00,
2013-08-18 17:07:00,69.1,57.7,29.74,West,270,0.0,3.1,67,0.00,,,0.01,pywws,2013-08-18 16:07:00,
2013-08-18 17:13:00,70.0,57.2,29.74,NW,315,1.6,3.8,64,0.00,,,0.01,pywws,2013-08-18 16:13:00,
2013-08-18 17:18:00,73.8,56.1,29.74,SE,135,2.2,4.5,54,0.00,,,0.01,pywws,2013-08-18 16:18:00,
2013-08-18 17:24:00,75.9,56.5,29.74,SE,135,0.7,3.1,51,0.00,,,0.01,pywws,2013-08-18 16:24:00,
2013-08-18 17:29:00,75.0,56.2,29.74,South,180,0.7,2.2,52,0.00,,,0.01,pywws,2013-08-18 16:29:00,
2013-08-18 17:35:00,73.4,57.2,29.74,SE,135,0.0,1.6,57,0.00,,,0.01,pywws,2013-08-18 16:35:00,
2013-08-18 17:41:00,73.6,57.9,29.74,SW,225,0.0,1.6,58,0.00,,,0.01,pywws,2013-08-18 16:41:00,
2013-08-18 17:46:00,72.5,57.3,29.73,West,270,0.0,2.2,59,0.00,,,0.01,pywws,2013-08-18 16:46:00,
2013-08-18 17:52:00,72.0,57.3,29.74,SE,135,0.0,0.0,60,0.00,,,0.01,pywws,2013-08-18 16:52:00,
2013-08-18 17:57:00,71.4,56.8,29.73,NW,315,0.0,2.2,60,0.00,,,0.01,pywws,2013-08-18 16:57:00,
2013-08-18 18:03:00,71.1,56.9,29.74,NW,315,0.0,1.6,61,0.00,,,0.01,pywws,2013-08-18 17:03:00,
2013-08-18 18:09:00,70.9,56.7,29.74,SW,225,0.0,1.6,61,0.00,,,0.01,pywws,2013-08-18 17:09:00,
2013-08-18 18:14:00,71.2,58.0,29.74,South,180,1.6,3.8,63,0.00,,,0.01,pywws,2013-08-18 17:14:00,
2013-08-18 18:20:00,71.6,57.9,29.74,SW,225,3.1,6.9,62,0.00,,,0.01,pywws,2013-08-18 17:20:00,
2013-08-18 18:25:00,72.0,58.2,29.74,WSW,248,1.6,3.8,62,0.00,,,0.01,pywws,2013-08-18 17:25:00,
2013-08-18 18:31:00,72.7,58.4,29.73,ESE,112,0.7,2.2,61,0.00,,,0.01,pywws,2013-08-18 17:31:00,
2013-08-18 18:37:00,72.1,57.9,29.74,SW,225,2.2,6.0,61,0.00,,,0.01,pywws,2013-08-18 17:37:00,
2013-08-18 18:42:00,70.9,58.1,29.74,SE,135,0.7,3.1,64,0.00,,,0.01,pywws,2013-08-18 17:42:00,
2013-08-18 18:48:00,70.2,58.3,29.74,East,90,0.7,3.1,66,0.00,,,0.01,pywws,2013-08-18 17:48:00,
2013-08-18 18:53:00,69.6,58.6,29.74,NW,315,0.7,4.5,68,0.00,,,0.01,pywws,2013-08-18 17:53:00,
2013-08-18 18:59:00,69.3,58.6,29.74,North,0,1.6,4.5,69,0.00,,,0.01,pywws,2013-08-18 17:59:00,
2013-08-18 19:05:00,69.1,58.9,29.74,East,90,1.6,5.4,70,0.00,,,0.01,pywws,2013-08-18 18:05:00,
2013-08-18 19:10:00,68.7,58.5,29.74,SE,135,0.7,2.2,70,0.00,,,0.01,pywws,2013-08-18 18:10:00,
2013-08-18 19:16:00,68.4,58.2,29.75,South,180,2.2,4.5,70,0.00,,,0.01,pywws,2013-08-18 18:16:00,
2013-08-18 19:21:00,68.0,57.8,29.75,NW,315,1.6,4.5,70,0.00,,,0.01,pywws,2013-08-18 18:21:00,
2013-08-18 19:27:00,67.6,57.9,29.75,NW,315,1.6,3.8,71,0.00,,,0.01,pywws,2013-08-18 18:27:00,
2013-08-18 19:33:00,67.3,57.9,29.75,East,90,2.2,3.1,72,0.00,,,0.01,pywws,2013-08-18 18:33:00,
2013-08-18 19:38:00,66.9,58.0,29.75,North,0,1.6,3.8,73,0.00,,,0.01,pywws,2013-08-18 18:38:00,
2013-08-18 19:44:00,66.6,58.4,29.75,SSW,202,2.2,6.0,75,0.00,,,0.01,pywws,2013-08-18 18:44:00,
2013-08-18 19:49:00,66.4,58.6,29.75,NW,315,1.6,5.4,76,0.00,,,0.01,pywws,2013-08-18 18:49:00,
2013-08-18 19:55:00,66.2,58.4,29.75,North,0,0.0,0.7,76,0.00,,,0.01,pywws,2013-08-18 18:55:00,
2013-08-18 20:01:00,66.0,58.6,29.75,East,90,1.6,3.8,77,0.00,,,0.01,pywws,2013-08-18 19:01:00,
2013-08-18 20:06:00,65.8,58.4,29.75,NW,315,0.7,3.8,77,0.00,,,0.01,pywws,2013-08-18 19:06:00,
2013-08-18 20:12:00,65.8,58.8,29.75,SW,225,1.6,3.1,78,0.00,,,0.01,pywws,2013-08-18 19:12:00,
2013-08-18 20:17:00,65.7,58.6,29.75,North,0,0.7,2.2,78,0.00,,,0.01,pywws,2013-08-18 19:17:00,
2013-08-18 20:23:00,65.7,58.6,29.76,SW,225,0.0,3.8,78,0.00,,,0.01,pywws,2013-08-18 19:23:00,
2013-08-18 20:29:00,65.5,58.8,29.76,SW,225,0.0,2.2,79,0.00,,,0.01,pywws,2013-08-18 19:29:00,
2013-08-18 20:34:00,65.5,58.8,29.76,South,180,1.6,3.1,79,0.00,,,0.01,pywws,2013-08-18 19:34:00,
2013-08-18 20:40:00,65.3,58.6,29.76,West,270,0.7,3.1,79,0.00,,,0.01,pywws,2013-08-18 19:40:00,
2013-08-18 20:45:00,65.1,58.4,29.77,SSE,158,0.0,3.1,79,0.00,,,0.01,pywws,2013-08-18 19:45:00,
2013-08-18 20:51:00,65.1,58.8,29.77,North,0,0.7,2.2,80,0.00,,,0.01,pywws,2013-08-18 19:51:00,
2013-08-18 20:57:00,64.9,58.6,29.78,NW,315,1.6,3.1,80,0.00,,,0.01,pywws,2013-08-18 19:57:00,
2013-08-18 21:02:00,64.8,58.4,29.77,West,270,0.7,2.2,80,0.00,,,0.01,pywws,2013-08-18 20:02:00,
2013-08-18 21:08:00,64.6,58.6,29.77,East,90,1.6,3.8,81,0.00,,,0.01,pywws,2013-08-18 20:08:00,
2013-08-18 21:13:00,64.6,58.6,29.78,SW,225,1.6,2.2,81,0.00,,,0.01,pywws,2013-08-18 20:13:00,
2013-08-18 21:19:00,64.4,58.8,29.78,South,180,0.7,3.1,82,0.00,,,0.01,pywws,2013-08-18 20:19:00,
2013-08-18 21:25:00,64.4,58.8,29.77,NW,315,0.0,3.1,82,0.00,,,0.01,pywws,2013-08-18 20:25:00,
2013-08-18 21:30:00,64.2,58.6,29.78,NE,45,0.0,2.2,82,0.00,,,0.01,pywws,2013-08-18 20:30:00,
2013-08-18 21:36:00,64.2,58.6,29.78,South,180,0.0,2.2,82,0.00,,,0.01,pywws,2013-08-18 20:36:00,
2013-08-18 21:41:00,64.0,58.4,29.78,NE,45,0.7,3.1,82,0.00,,,0.01,pywws,2013-08-18 20:41:00,
2013-08-18 21:47:00,64.0,58.8,29.78,North,0,0.7,2.2,83,0.00,,,0.01,pywws,2013-08-18 20:47:00,
2013-08-18 21:53:00,63.9,58.6,29.78,South,180,0.7,3.1,83,0.00,,,0.01,pywws,2013-08-18 20:53:00,
2013-08-18 21:58:00,63.9,58.6,29.78,NW,315,0.0,1.6,83,0.00,,,0.01,pywws,2013-08-18 20:58:00,
2013-08-18 22:04:00,63.9,58.6,29.78,East,90,1.6,3.8,83,0.00,,,0.01,pywws,2013-08-18 21:04:00,
2013-08-18 22:09:00,63.9,58.6,29.78,East,90,0.7,2.2,83,0.00,,,0.01,pywws,2013-08-18 21:09:00,
2013-08-18 22:15:00,63.9,58.6,29.78,South,180,0.0,2.2,83,0.00,,,0.01,pywws,2013-08-18 21:15:00,
2013-08-18 22:21:00,63.9,58.6,29.79,WNW,292,0.7,3.1,83,0.00,,,0.01,pywws,2013-08-18 21:21:00,
2013-08-18 22:26:00,63.7,58.4,29.79,West,270,0.0,0.0,83,0.00,,,0.01,pywws,2013-08-18 21:26:00,
2013-08-18 22:32:00,63.7,58.4,29.79,NE,45,0.0,0.0,83,0.00,,,0.01,pywws,2013-08-18 21:32:00,
2013-08-18 22:37:00,63.7,58.4,29.79,NE,45,0.0,0.7,83,0.00,,,0.01,pywws,2013-08-18 21:37:00,
2013-08-18 22:43:00,63.5,57.9,29.79,SE,135,0.0,0.0,82,0.00,,,0.01,pywws,2013-08-18 21:43:00,
2013-08-18 22:49:00,63.5,57.9,29.79,North,0,0.0,0.7,82,0.00,,,0.01,pywws,2013-08-18 21:49:00,
2013-08-18 22:54:00,63.5,57.6,29.79,East,90,0.0,0.0,81,0.00,,,0.01,pywws,2013-08-18 21:54:00,
2013-08-18 23:00:00,63.5,57.2,29.79,North,0,0.0,0.0,80,0.00,,,0.01,pywws,2013-08-18 22:00:00,
2013-08-18 23:05:00,63.5,57.2,29.79,North,0,0.0,0.0,80,0.00,,,0.01,pywws,2013-08-18 22:05:00,
2013-08-18 23:11:00,63.3,56.7,29.79,NW,315,0.0,0.0,79,0.00,,,0.01,pywws,2013-08-18 22:11:00,
2013-08-18 23:17:00,63.0,56.3,29.79,SW,225,0.0,2.2,79,0.00,,,0.01,pywws,2013-08-18 22:17:00,
2013-08-18 23:22:00,63.0,56.3,29.79,SW,225,0.0,1.6,79,0.00,,,0.01,pywws,2013-08-18 22:22:00,
2013-08-18 23:28:00,62.8,55.8,29.79,North,0,0.0,2.2,78,0.00,,,0.01,pywws,2013-08-18 22:28:00,
2013-08-18 23:33:00,62.8,55.5,29.80,SE,135,0.0,3.1,77,0.00,,,0.01,pywws,2013-08-18 22:33:00,
2013-08-18 23:39:00,62.6,54.9,29.80,SW,225,0.0,0.7,76,0.00,,,0.01,pywws,2013-08-18 22:39:00,
2013-08-18 23:45:00,62.4,54.0,29.80,NE,45,0.7,2.2,74,0.00,,,0.01,pywws,2013-08-18 22:45:00,
2013-08-18 23:50:00,62.4,53.3,29.80,NNW,338,0.7,3.8,72,0.00,,,0.01,pywws,2013-08-18 22:50:00,
2013-08-18 23:56:00,62.2,53.5,29.80,West,270,0.0,1.6,73,0.00,,,0.00,pywws,2013-08-18 22:56:00,